Location: Oberwangen
(47.4286°N, 8.9679°E)
Time: 04:35:49
(UTC+00:00)

SL-4 R/B - Pass Details

Date: 20 June 2021
Orbit: 428 x 662 km, 51.6° (Epoch: 27 July)

Event Time Altitude Azimuth Distance (km) Brightness Sun altitude
Rises 23:33:17 0° 266° (W) 2,680 5.5 -19.1°
Reaches altitude 10° 23:35:38 10° 272° (W) 1,747 4.6 -19.1°
Maximum altitude 23:39:28 49° 348° (NNW) 641 2.7 -19.1°
Drops below altitude 10° 23:43:02 10° 65° (ENE) 1,626 4.8 -19.0°
Sets 23:45:10 0° 71° (ENE) 2,472 5.7 -19.0°
